Terminal Aerodrome Forecast
Issued by NWS

Home | Current Version | Previous Version | Text Only | Print | Product List | Glossary On
Versions: 1 2 3 4 5 6 7 8 9 10 11 12 13 14 15 16 17 18 19 20 21 22 23 24 25 26 27 28 29 30 31 32 33 34 35 36 37 38 39 40 41 42 43 44
000
FTUS43 KDDC 261922 AAB
TAFGCK
TAF AMD
KGCK 261922Z 2619/2718 02017G24KT 1/2SM -SN FZFG OVC008
     FM262000 01016KT 2SM -SN OVC005
     FM262300 35011KT P6SM OVC010
     FM270400 35011KT P6SM BKN030=

USA.gov is the U.S. government's official web portal to all federal, state and local government web resources and services.